Burns, OR

7:15 PM PST on December 14, 2017 (GMT -0800)
Burns Municipal

Weather History for KBNO - January, 1999

Change the Weather History Date:

Friday, January 1, 1999

  Actual Average Record
Temperature  
Mean Temperature 32 °F 24 °F  
Max Temperature 39 °F 34 °F 53 °F (1997)
Min Temperature 24 °F 14 °F -23 °F (2011)
Degree Days  
Heating Degree Days 33 41  
Month to date heating degree days 41  
Since 1 July heating degree days 3308  
Cooling Degree Days 0 0  
Month to date cooling degree days 0  
Year to date cooling degree days 0  
Moisture  
Dew Point 25 °F    
Average Humidity 83    
Maximum Humidity 96    
Minimum Humidity 62    
Precipitation  
Precipitation 0.00 in 0.05 in 0.73 in (1997)
Month to date precipitation 0.05  
Year to date precipitation 0.05  
Sea Level Pressure  
Sea Level Pressure 30.39 in    
Wind  
Wind Speed 6 mph (WSW)    
Max Wind Speed 10 mph    
Max Gust Speed -    
Visibility 10 miles    
Events      
T = Trace of Precipitation, MM = Missing Value Source: NWS Daily Summary

Daily Weather History Graph

Daily Weather History Graph

Search for Another Location

Airport or City:

Trip Planner

Search our weather history database for the weather conditions in past years. The results will help you decide how hot, cold, wet, or windy it might be!

Date:

Astronomy

Jan. 01, 1999 Rise Set
Actual Time 7:29 AM PST 4:29 PM PST
Civil Twilight 6:56 AM PST 5:02 PM PST
Nautical Twilight 6:20 AM PST 5:38 PM PST
Astronomical Twilight 5:45 AM PST 6:13 PM PST
Moon 4:34 PM PST (1/1) 6:47 AM PST (1/1)
Length of Visible Light 10h 05m
Length of Day
9h 00m
Full, 100% of the Moon is Illuminated
Jan 1
Full
Jan 1
Full
Jan 9
Last Quarter
Jan 17
New
Jan 24
First Quarter

Hourly Weather History & Observations

Time (PST) Temp. Windchill Dew Point Humidity Pressure Visibility Wind Dir Wind Speed Gust Speed Precip Events Conditions
12:53 AM 28.9 °F 21.1 °F 27.0 °F 92% 30.28 in 10.0 mi SW 8.1 mph - N/A   Clear
1:53 AM 28.9 °F 19.8 °F 27.0 °F 92% 30.29 in 10.0 mi SW 10.4 mph - N/A   Clear
2:53 AM 27.0 °F 17.3 °F 26.1 °F 96% 30.32 in 10.0 mi SW 10.4 mph - N/A   Clear
3:53 AM 26.1 °F 18.4 °F 25.0 °F 96% 30.34 in 10.0 mi West 6.9 mph - N/A   Clear
4:53 AM 25.0 °F 16.3 °F 23.0 °F 92% 30.35 in 10.0 mi West 8.1 mph - N/A   Clear
5:53 AM 25.0 °F 20.7 °F 23.0 °F 92% 30.36 in 10.0 mi NW 3.5 mph - N/A   Clear
6:53 AM 26.1 °F - 21.9 °F 84% 30.38 in 10.0 mi Calm Calm - N/A   Clear
7:53 AM 25.0 °F 19.3 °F 23.0 °F 92% 30.40 in 10.0 mi WNW 4.6 mph - N/A   Clear
8:53 AM 28.9 °F - 24.1 °F 82% 30.42 in 10.0 mi Calm Calm - N/A   Clear
9:53 AM 30.9 °F 25.2 °F 26.1 °F 82% 30.44 in 10.0 mi South 5.8 mph - N/A   Clear
10:53 AM 34.0 °F 31.0 °F 25.0 °F 70% 30.43 in 10.0 mi SW 3.5 mph - N/A   Clear
11:53 AM 36.0 °F 32.1 °F 28.0 °F 73% 30.40 in 10.0 mi SSW 4.6 mph - N/A   Clear
12:53 PM 37.9 °F - 26.1 °F 62% 30.38 in 10.0 mi Calm Calm - N/A   Clear
1:53 PM 39.0 °F 36.8 °F 28.0 °F 65% 30.38 in 10.0 mi South 3.5 mph - N/A   Clear
2:53 PM 39.9 °F 36.7 °F 28.0 °F 63% 30.38 in 10.0 mi South 4.6 mph - N/A   Partly Cloudy
3:53 PM 37.9 °F 33.5 °F 28.0 °F 68% 30.38 in 10.0 mi SW 5.8 mph - N/A   Clear
4:53 PM 32.0 °F 27.5 °F 28.0 °F 85% 30.41 in 10.0 mi NE 4.6 mph - N/A   Clear
7:53 PM 26.1 °F - 25.0 °F 96% 30.44 in 10.0 mi Calm Calm - N/A   Clear
8:53 PM 26.1 °F 19.4 °F 23.0 °F 88% 30.45 in 10.0 mi NW 5.8 mph - N/A   Clear
9:53 PM 26.1 °F 20.5 °F 23.0 °F 88% 30.46 in 10.0 mi WNW 4.6 mph - N/A   Clear
10:53 PM 26.1 °F 19.4 °F 21.9 °F 84% 30.46 in 10.0 mi West 5.8 mph - N/A   Clear
11:53 PM 24.1 °F 18.2 °F 21.9 °F 91% 30.44 in 10.0 mi WNW 4.6 mph - N/A   Clear